默认 日期 大小 文件数 浏览量 最新下载 xml
kyle磁力链接相关资源由用户搜索指令自动获取,结果来源于网络,本站不存储任何资料,亦不承担任何责任,请于24小时内删除,搜索到2885个磁力,用时3ms。
    {"free audiobook version.txt": 713, "The Lookback Window by Kyle Dillon Hertz.epub": 7141723}
创建时间: 2023-08-07 18:58:03 大小:6.81 MB 文件数量:2 热度:6 最近下载:2025-08-02 11:30:02
    {"Folder.jpg": 16286, "03 - Bro Ho.flac": 28733160, "01 - Manchild.flac": 27457886, "02 - Dyin' Day.flac": 30654930, "05 - Tremendous.flac": 33754853, "09 - Road Chops.flac": 35069333, "07 - Questionable.flac": 27018173, "10 - Gypsy Scroll.flac": 49368029, ...
创建时间: 2023-08-07 20:34:41 大小:288.27 MB 文件数量:11 热度:4 最近下载:2025-01-12 01:21:04
    {"free audiobook version.txt": 713, "The Lookback Window by Kyle Dillon Hertz.epub": 7141723}
创建时间: 2023-08-08 21:49:22 大小:6.81 MB 文件数量:2 热度:10 最近下载:2025-10-11 07:36:01
    ... 2021.S01E01.WEB-DL.1080p-Kyle.mkv": 2328565113, "Sex ... 2021.S01E02.WEB-DL.1080p-Kyle.mkv": 2115624926, "Sex ... 2021.S01E03.WEB-DL.1080p-Kyle.mkv": 2866720472, "Sex ... 2021.S01E04.WEB-DL.1080p-Kyle.mkv": 1985905732, "Sex ... .S01E05.WEB-DL.1080p-Kyle.mkv": 1378433543, "Sex ...
创建时间: 2023-08-09 17:58:09 大小:16.56 GB 文件数量:8 热度:6 最近下载:2025-03-21 08:28:02
    {"free audiobook version.txt": 713, "How to Host a Viking Funeral by Kyle Scheele.epub": 10411643}
创建时间: 2023-08-13 16:28:12 大小:9.93 MB 文件数量:2 热度:7 最近下载:2025-01-18 07:01:41
    {"RARBG.txt": 30, "RARBG_DO_NOT_MIRROR.exe": 99, "Kyle.Brownrigg.Introducing.Lyle.2022.720p.WEB.H264-DiMEPiECE.mkv": 511412292, "kyle.brownrigg.introducing.lyle.2022.720p.web.h264-dimepiece.nfo": 289}
创建时间: 2023-08-13 21:34:32 大小:487.72 MB 文件数量:4 热度:3 最近下载:2025-01-12 14:14:10
    ... Children Were Watching).flac": 10599095, "Kyle Bobby Dunn - Bring Me the ... [Bring Me The Head Of Kyle Bobby Dunn] [2012] [FLAC] [ ... [Bring Me The Head Of Kyle Bobby Dunn] [2012] [FLAC] [ ... "Z - CodeTempest 87.jpg": 505755, "Kyle Bobby Dunn [Bring Me The ...
创建时间: 2023-08-14 19:36:50 大小:334.15 MB 文件数量:28 热度:3 最近下载:2025-03-10 19:41:02
    ... Empress.Ki.S01E01.BDRip.1080p-Kyle.mkv": 6794314333, "Empress.Ki ... .S01E02.BDRip.1080p-Kyle.mkv": 5919365019, "Empress.Ki ... .S01E03.BDRip.1080p-Kyle.mkv": 7927997965, "Empress.Ki ... .S01E04.BDRip.1080p-Kyle.mkv": 6654235688, "Empress.Ki ...
创建时间: 2023-08-16 17:29:23 大小:30.73 GB 文件数量:5 热度:2 最近下载:2025-01-21 20:36:02
    ... , "Kyle_Simpson-All-6_djvu.xml": 18029166, "kyle-simpson-all-6_meta.xml": 1098 ... , "kyle-simpson-all-6_meta.sqlite": 11264, " ...
创建时间: 2023-08-18 21:58:51 大小:297.6 MB 文件数量:10 热度:2 最近下载:2025-02-06 09:42:02
    ... Empress.Ki.S01E01.BDRip.1080p-Kyle.mkv": 6794314333, "Empress.Ki ... .S01E02.BDRip.1080p-Kyle.mkv": 5919365019, "Empress.Ki ... .S01E03.BDRip.1080p-Kyle.mkv": 7927997965, "Empress.Ki ... .S01E04.BDRip.1080p-Kyle.mkv": 6654235688, "Empress.Ki ...
创建时间: 2023-08-20 22:26:17 大小:40.79 GB 文件数量:7 热度:5 最近下载:2025-01-26 18:08:07
    ... 2016.S01E01.WEB-DL.1080p-Kyle.mkv": 3568777047, "Dokkaebi.2016. ... S01E02.WEB-DL.1080p-Kyle.mkv": 3114978859, "Dokkaebi.2016 ... .S01E03.WEB-DL.1080p-Kyle.mkv": 3336017362, "Dokkaebi.2016 ... .S01E04.WEB-DL.1080p-Kyle.mkv": 2510058870, "Dokkaebi.2016 ...
创建时间: 2023-08-22 07:24:06 大小:45.44 GB 文件数量:16 热度:2 最近下载:2025-01-23 15:46:11
    ... Empress.Ki.S01E01.BDRip.1080p-Kyle.mkv": 6794314333, "Empress.Ki ... .S01E02.BDRip.1080p-Kyle.mkv": 5919365019, "Empress.Ki ... .S01E03.BDRip.1080p-Kyle.mkv": 7927997965, "Empress.Ki ... .S01E04.BDRip.1080p-Kyle.mkv": 6654235688, "Empress.Ki ...
创建时间: 2023-08-22 15:30:58 大小:60.85 GB 文件数量:11 热度:4 最近下载:2025-01-12 11:47:02
    {"folder.jpg": 60232, "03 - Cheyenne.flac": 62971426, "05 - Crosshairs.flac": 41722507, "07 - Rock Bottom.flac": 63931160, "01 - For the Boys.flac": 41593119, "04 - Stuck Inside.flac": 44192262, "08 - Till the End.flac": 50731905, "02 - How 'bout You.flac ...
创建时间: 2023-08-22 18:20:52 大小:437.01 MB 文件数量:10 热度:4 最近下载:2025-01-12 14:13:03
    ... Empress.Ki.S01E01.BDRip.1080p-Kyle.mkv": 6794314333, "Empress.Ki ... .S01E02.BDRip.1080p-Kyle.mkv": 5919365019, "Empress.Ki ... .S01E03.BDRip.1080p-Kyle.mkv": 7927997965, "Empress.Ki ... .S01E04.BDRip.1080p-Kyle.mkv": 6654235688, "Empress.Ki ...
创建时间: 2023-08-24 23:05:13 大小:86.78 GB 文件数量:16 热度:6 最近下载:2025-02-18 19:30:01
    ... XviD-Pir8.avi": 408281088, "Kyle.XY.1x09.Udito.Straordinario.ITA ... XviD-Pir8.avi": 409810944, "Kyle.XY.2x17.Una.Visita.Inaspettata ... -Pir8.srt": 113, "Kyle.XY.2x20.Una.Giornata.Indimenticabile ... XviD-Pir8.avi": 411119616, "Kyle.XY.2x20.Una.Giornata.Indimenticabile ...
创建时间: 2023-08-25 22:29:38 大小:16.42 GB 文件数量:172 热度:4 最近下载:2025-01-12 04:19:06
    ... Empress.Ki.S01E01.BDRip.1080p-Kyle.mkv": 6794314333, "Empress.Ki ... .S01E02.BDRip.1080p-Kyle.mkv": 5919365019, "Empress.Ki ... .S01E03.BDRip.1080p-Kyle.mkv": 7927997965, "Empress.Ki ... .S01E04.BDRip.1080p-Kyle.mkv": 6654235688, "Empress.Ki ...
创建时间: 2023-08-27 05:57:32 大小:76.24 GB 文件数量:14 热度:5 最近下载:2025-02-19 12:46:03
    {"__ia_thumb.jpg": 5673, "the-jeremy-kyle-show-0000015_meta.xml": 861, "The Jeremy Kyle Show (7 August 2018).mp4": 318711958, "the-jeremy-kyle-show-0000015_meta.sqlite": 20480, "The Jeremy Kyle Show (7 August 2018).ia.mp4": 318711958}
创建时间: 2023-08-29 05:12:28 大小:607.92 MB 文件数量:5 热度:7 最近下载:2025-09-21 00:29:03
    {"PornRips.to - HEVC x265 Porn.nfo": 47, "[XvX]Endorsed by torrentgalaxy.to .nfo": 718, "LoveHerBoobs.22.08.02.Katalina.Kyle.Enjoying.The.View.XXX.720p.HEVC.x265.PRT.mkv": 633258396}
创建时间: 2023-09-01 07:29:56 大小:603.92 MB 文件数量:3 热度:6 最近下载:2025-04-07 00:57:01
    ... Empress.Ki.S01E01.BDRip.1080p-Kyle.mkv": 6794314333, "Empress.Ki ... .S01E02.BDRip.1080p-Kyle.mkv": 5919365019, "Empress.Ki ... .S01E03.BDRip.1080p-Kyle.mkv": 7927997965, "Empress.Ki ... .S01E04.BDRip.1080p-Kyle.mkv": 6654235688, "Empress.Ki ...
创建时间: 2023-09-01 07:36:59 大小:98.04 GB 文件数量:18 热度:6 最近下载:2025-02-20 06:33:02
    {"Provided by PornRips.to.nfo": 47, "LoveHerBoobs.22.08.02.Katalina.Kyle.Enjoying.The.View.XXX.1080p.HEVC.x265.PRT.mp4": 1005899010}
创建时间: 2023-09-01 09:19:26 大小:959.3 MB 文件数量:2 热度:9 最近下载:2025-02-11 07:49:02